Theta_e
320 328 329 331 328 326 330 330 327 329 329 330 329 329 330 331 333 330 337 338 337 337 333 332 332 332 332 330 326 325 315 316 318 318 324 329 327 326 322 319 317 316 316 325 317 317 322 325 323
323 328 331 331 327 329 329 327 329 328 329 331 332 332 332 333 337 337 337 336 337 337 334 332 331 330 331 330 326 326 320 317 323 321 318 319 324 324 323 319 316 326 327 325 318 316 318 320 326
326 330 330 324 324 329 330 327 326 328 330 330 331 334 335 334 337 336 336 335 336 336 333 331 331 329 329 329 325 326 322 316 323 328 324 319 325 325 325 323 321 324 321 314 315 315 318 321 328
326 329 328 325 330 328 328 325 327 327 328 331 329 334 334 335 333 333 332 336 336 336 335 333 330 329 327 327 324 325 323 318 314 326 328 326 327 327 324 323 321 321 317 311 311 313 315 324 326
324 327 323 328 330 328 326 326 328 325 326 332 332 334 336 334 328 327 331 334 334 333 335 333 329 329 327 327 325 324 324 321 316 318 327 327 325 323 323 324 323 320 317 311 310 311 313 318 319
322 323 323 328 328 327 325 327 327 325 329 332 333 334 336 336 332 328 333 336 337 332 331 332 330 328 329 327 326 325 324 324 320 316 318 322 321 319 322 324 323 321 318 314 311 310 310 311 311
319 315 320 322 326 327 326 326 325 325 327 328 331 332 336 337 333 332 334 335 333 331 330 326 328 328 329 329 328 327 325 325 324 320 316 317 316 318 320 321 323 321 317 315 315 313 312 310 310
322 314 318 322 326 327 325 325 326 326 325 328 331 330 333 329 330 333 335 333 329 328 327 326 328 326 326 328 329 328 328 327 326 325 322 318 317 317 318 318 320 320 318 316 315 315 315 314 312
321 314 313 316 325 325 325 323 324 325 325 326 328 329 326 321 326 330 333 333 332 331 329 329 327 325 328 329 326 327 328 329 328 327 326 324 321 319 317 317 320 318 318 318 316 315 314 314 313
316 311 315 319 321 322 323 324 323 324 325 326 328 327 323 324 328 329 330 330 330 330 327 329 328 327 327 326 326 326 328 327 327 328 329 327 326 323 321 320 322 322 322 322 321 319 316 316 316
316 314 317 322 324 322 323 323 322 323 321 325 325 324 325 326 326 326 325 328 327 327 330 330 330 330 330 329 328 328 330 330 330 328 326 326 328 326 325 323 323 324 324 322 321 321 320 321 320
318 318 321 323 323 323 323 323 323 323 323 323 324 324 326 327 325 323 323 321 322 325 325 328 329 330 332 331 330 330 331 326 332 332 334 334 332 327 328 329 328 327 326 325 323 323 322 322 321
318 318 323 323 323 322 323 322 321 323 323 323 323 324 323 322 321 321 321 321 321 320 320 321 321 323 327 332 331 330 331 331 331 329 335 333 331 329 329 328 327 328 328 328 328 327 326 326 325
318 318 320 322 322 321 321 321 321 323 322 322 322 322 322 321 320 319 319 319 319 319 320 321 321 320 323 331 332 330 330 332 332 330 327 332 329 330 330 329 328 327 327 326 326 327 326 326 326
318 318 316 320 320 319 319 316 317 321 322 320 320 321 321 320 318 319 319 318 319 320 320 321 321 320 322 329 333 332 331 333 333 331 333 331 327 330 329 329 328 328 327 327 326 327 326 326 325
317 313 316 314 319 318 314 312 310 314 319 318 319 320 320 318 317 319 319 318 319 320 320 320 320 320 320 325 329 329 329 330 330 332 331 330 330 330 329 329 328 329 328 327 327 326 326 325 325
315 311 313 313 316 316 313 310 310 316 315 314 316 318 318 317 317 317 317 317 318 320 319 319 319 319 319 319 319 320 322 328 329 331 331 330 330 328 328 328 328 327 327 327 327 326 327 326 325
315 315 313 311 316 315 316 313 311 316 316 317 317 317 317 317 318 317 316 317 318 319 319 319 318 317 317 316 317 317 317 320 324 328 329 327 328 327 328 327 327 327 326 326 325 325 325 324 324
313 314 313 311 316 316 315 314 314 316 316 315 317 317 317 317 316 316 315 316 317 318 317 315 315 314 314 313 313 314 317 318 321 325 327 326 327 325 326 326 326 326 327 325 324 324 324 323 323
316 315 315 316 316 316 315 315 313 313 314 315 315 316 317 316 314 315 315 315 315 315 314 313 312 312 312 313 313 316 321 325 325 325 324 325 325 326 326 325 325 326 325 325 324 323 322 321 321
315 315 315 315 315 314 311 309 309 310 313 314 314 315 315 315 314 314 314 314 313 313 312 312 312 312 313 315 317 325 324 324 323 322 322 324 325 325 323 322 322 322 321 321 320 320 320 319 319
315 314 315 316 315 314 312 310 310 311 311 312 313 313 313 313 313 313 313 312 311 311 311 311 312 312 314 316 319 322 321 321 321 321 321 321 321 320 319 320 319 316 315 315 313 312 311 311 312
316 314 314 315 316 314 313 311 309 310 311 312 309 311 312 312 312 312 312 310 310 310 311 311 311 310 312 316 318 322 321 318 318 319 318 318 318 316 308 308 308 307 307 307 306 304 303 303 303
314 314 314 313 312 310 313 309 306 311 312 310 310 310 311 311 311 310 309 309 309 310 310 309 309 309 309 310 315 318 318 316 316 316 316 316 308 306 302 300 299 299 299 299 299 298 298 299 299
314 313 313 308 313 312 310 312 310 309 310 310 310 309 310 310 310 309 308 308 309 309 309 308 308 307 307 308 308 309 311 312 311 309 307 303 300 299 298 298 298 298 298 298 298 298 298 298 297
315 313 310 309 313 312 310 313 310 309 311 311 312 311 309 308 308 308 307 308 308 308 308 307 306 305 305 305 304 304 304 303 301 300 299 298 298 298 298 298 298 297 297 296 296 296 296 296 295
315 316 312 312 300 308 309 309 308 310 309 308 309 309 307 308 307 307 307 308 307 308 307 306 305 303 303 303 302 301 300 299 298 298 298 298 298 298 297 297 297 296 295 295 295 295 294 294 293
314 312 315 311 306 308 308 309 308 309 309 307 305 307 308 308 308 309 308 308 308 307 307 307 306 305 304 301 300 299 298 298 298 298 298 298 298 297 297 296 295 295 294 294 293 293 292 292 292
313 313 313 312 307 310 309 309 304 310 307 307 307 309 309 310 310 309 308 307 306 306 305 305 305 304 302 301 300 299 298 298 298 298 298 297 297 298 297 296 295 293 293 292 291 291 291 291 291
312 313 313 310 309 306 308 308 307 307 307 309 309 310 310 309 309 308 307 307 307 307 306 305 304 303 301 300 299 298 297 297 297 297 297 298 297 296 295 293 293 292 291 291 290 290 290 290 290
Wind_Speed
12 6 1 2 4 5 2 2 2 3 3 6 12 15 9 7 2 4 8 7 6 5 4 4 4 4 4 4 5 6 6 6 6 7 10 6 3 2 1 1 2 2 4 3 5 5 6 4 2
12 3 1 2 5 4 2 2 6 3 14 24 19 13 7 3 5 10 8 6 5 4 4 6 4 4 4 4 4 5 5 6 7 6 5 6 3 1 3 5 7 8 5 1 4 5 6 5 3
8 4 3 4 3 5 6 5 7 8 22 11 6 9 5 4 6 6 5 10 7 6 6 5 3 3 4 3 4 4 4 4 5 5 5 5 3 3 2 3 4 6 4 0 3 4 5 3 4
7 3 4 4 2 1 8 7 9 9 10 8 17 7 6 3 5 4 9 10 9 8 5 3 3 3 3 3 3 3 3 3 4 6 5 5 5 3 2 4 2 1 2 1 4 5 6 6 3
4 3 4 3 2 2 2 12 16 5 6 13 7 4 5 6 5 7 11 10 7 6 5 5 4 4 4 3 2 2 2 3 2 5 6 5 3 3 4 5 6 4 3 1 1 4 5 6 5
3 3 4 2 2 2 2 16 16 6 10 11 11 8 4 7 5 10 11 8 5 2 3 5 6 6 5 4 3 2 1 1 1 3 5 5 4 5 6 5 4 5 3 2 3 3 4 5 6
4 4 5 3 6 1 4 12 12 13 13 5 16 4 8 11 7 11 10 8 5 3 1 2 5 7 7 6 5 4 3 3 2 2 4 6 6 5 5 6 6 8 7 6 5 6 6 6 7
3 4 5 3 6 5 3 4 11 17 4 12 14 7 6 16 14 12 10 7 4 2 1 3 2 3 5 7 7 7 6 5 5 4 4 5 7 7 7 7 8 9 9 8 8 8 8 8 9
3 4 2 5 7 5 9 5 5 5 11 5 9 10 12 17 15 13 12 11 8 4 2 3 4 5 5 6 8 8 6 6 7 7 7 7 7 8 9 8 7 7 8 9 10 10 10 10 10
4 3 5 2 3 6 10 9 12 7 9 6 11 13 17 15 14 12 10 9 7 6 5 5 5 6 8 9 9 8 9 7 8 9 10 10 10 10 10 11 10 8 8 10 12 12 12 13 12
3 4 2 2 5 9 14 11 8 18 2 11 20 19 17 15 10 7 5 8 9 5 7 8 8 8 9 10 11 10 10 10 9 9 9 10 10 11 10 11 11 11 12 13 13 12 12 12 13
2 2 1 2 6 3 4 10 7 13 5 7 15 19 19 16 12 9 10 8 7 6 7 9 12 12 11 10 12 13 13 12 11 11 11 11 12 10 13 14 12 13 13 13 12 12 12 13 13
3 1 1 2 2 6 2 4 2 9 11 10 16 19 17 14 11 11 9 10 12 12 11 10 11 13 13 13 12 14 14 13 12 12 12 12 13 14 14 16 16 16 15 15 14 14 14 14 14
2 2 0 1 1 5 3 2 2 10 10 12 14 14 12 10 8 10 11 14 13 12 11 11 10 9 12 14 14 14 14 13 15 14 12 15 15 16 15 16 17 17 16 16 17 17 17 17 17
3 3 4 2 3 1 4 7 6 6 11 8 11 13 11 8 7 8 9 14 15 12 12 13 15 13 12 14 16 16 16 16 16 15 16 15 13 17 18 18 18 18 17 18 19 20 20 20 19
3 5 1 3 5 2 5 8 4 10 17 19 12 12 10 9 10 11 15 16 17 17 17 16 15 15 14 15 18 18 19 19 18 16 16 18 18 15 16 17 19 19 20 20 20 20 21 20 20
3 3 5 6 9 4 4 6 6 4 3 14 24 18 12 11 7 9 10 11 14 20 20 17 16 17 17 18 18 18 18 20 19 17 17 18 18 17 18 16 16 18 19 20 20 21 22 20 21
5 3 4 5 4 4 4 9 8 14 14 13 11 14 15 13 10 12 11 12 16 19 19 18 19 20 21 23 22 20 19 19 20 21 16 18 19 18 18 16 17 18 19 20 22 24 23 23 23
5 3 4 3 3 5 6 7 10 24 24 21 20 18 16 14 14 14 14 14 15 16 17 18 19 22 22 21 20 19 18 18 18 18 16 15 18 18 19 21 17 19 17 19 20 20 21 22 21
0 1 3 1 1 2 4 10 11 16 18 27 31 30 23 16 17 16 15 15 14 13 13 14 13 13 13 12 13 13 14 14 11 12 15 17 17 16 17 20 18 18 19 20 20 20 19 19 19
4 5 2 1 2 2 4 8 5 7 21 24 23 25 24 25 22 18 15 12 8 8 8 9 10 10 10 8 7 8 10 10 11 12 13 14 13 13 16 17 18 19 19 19 19 19 19 20 20
6 6 5 3 3 3 3 5 5 5 6 3 13 16 14 20 21 17 13 8 6 5 7 7 7 7 6 5 6 11 12 13 12 12 12 13 14 15 17 17 15 14 14 15 15 14 13 13 15
4 4 6 4 2 3 1 1 7 3 6 3 7 17 19 20 19 16 9 6 3 5 4 3 4 4 4 3 5 12 12 12 13 13 12 12 13 12 9 8 8 8 9 10 10 11 11 11 11
4 5 5 4 3 3 8 7 5 3 4 3 8 17 21 19 15 11 8 4 3 1 1 1 2 3 3 3 3 6 10 11 12 13 13 11 9 8 6 6 6 7 8 9 10 10 10 10 10
3 5 2 3 1 6 1 4 6 6 3 7 15 22 20 17 14 11 6 3 1 1 1 2 2 3 3 3 3 4 7 9 10 10 9 8 7 6 6 6 6 7 9 10 10 10 9 8 7
7 5 5 7 5 3 2 6 5 5 7 5 19 24 20 17 13 10 4 3 2 3 1 2 3 3 4 4 4 5 7 8 9 9 9 7 7 6 6 6 7 8 8 8 8 8 7 6 5
5 5 5 4 3 2 4 5 8 2 5 9 16 19 16 13 12 7 4 3 5 3 2 3 4 5 5 6 7 8 9 10 9 9 8 8 6 5 5 6 7 8 8 7 7 6 5 5 4
5 7 2 2 2 4 3 3 4 2 4 3 8 16 14 12 10 8 6 5 5 5 6 6 7 8 9 10 11 12 12 11 11 10 9 9 7 5 6 7 7 7 7 6 5 5 4 4 3
4 3 3 4 4 3 1 4 5 2 3 8 13 15 14 11 9 9 6 8 10 9 9 9 9 11 13 14 14 14 14 13 13 12 11 9 8 8 7 8 7 7 6 5 4 4 3 2 2
3 5 6 4 4 3 3 4 1 0 4 14 15 13 11 9 7 9 10 10 13 13 13 13 14 14 15 16 16 17 17 16 14 13 12 11 10 9 8 7 6 5 4 4 3 2 1 2 5
Wind_Direction
336 330 280 128 64 67 44 340 140 146 75 83 88 95 112 81 67 155 155 190 225 177 157 168 155 145 129 83 75 68 77 104 121 133 138 146 145 118 6 49 156 148 140 111 137 156 165 132 138
336 318 73 90 86 86 291 291 117 132 121 111 99 100 61 76 98 135 161 183 170 183 171 169 159 153 140 107 86 80 77 109 118 117 150 178 167 27 63 84 107 88 108 113 142 146 151 152 134
328 4 23 90 111 146 166 218 160 135 148 138 109 80 91 107 132 153 181 167 172 168 150 159 165 162 149 130 107 100 84 112 149 141 115 134 130 61 43 47 87 155 181 71 162 147 159 154 153
357 31 50 78 112 122 162 190 146 127 108 123 122 72 88 126 175 166 159 173 178 187 185 194 200 194 178 155 125 119 102 101 160 171 158 142 148 183 274 321 339 1 298 298 146 161 161 175 197
15 46 52 56 15 96 113 163 142 116 103 142 126 134 105 117 143 144 156 167 169 189 211 226 217 215 213 196 166 140 123 100 142 187 189 193 213 232 262 287 299 316 336 201 173 176 188 209 218
55 68 69 140 298 358 152 162 150 116 128 133 112 111 143 158 151 148 155 159 184 195 203 220 224 220 222 224 221 208 194 149 127 194 206 217 239 271 255 274 302 324 315 288 253 240 233 243 255
90 83 168 189 182 277 188 140 156 143 134 143 134 100 151 176 178 154 159 173 187 186 265 251 236 233 231 233 231 232 237 243 257 249 230 234 244 244 257 272 281 300 318 319 294 265 267 263 268
13 91 139 165 176 211 205 94 170 154 136 133 176 164 187 181 174 167 170 187 193 180 296 289 255 238 252 253 243 238 237 243 251 261 261 254 252 249 258 274 274 281 298 307 319 311 305 287 285
335 57 193 194 157 212 181 126 146 149 136 121 187 181 173 160 164 170 179 193 199 198 231 284 301 292 287 298 256 233 233 243 249 256 262 262 264 260 259 261 267 274 287 295 302 303 301 299 301
83 112 228 263 222 199 179 146 148 142 128 92 131 143 149 157 165 175 189 204 218 229 257 276 293 313 304 296 288 251 248 250 250 253 257 262 263 263 259 261 265 273 285 292 299 297 293 295 299
158 184 233 289 316 196 158 153 156 144 195 178 166 161 160 163 170 182 211 233 256 268 249 260 283 297 301 309 295 299 264 261 264 261 251 258 256 256 261 262 270 284 291 289 289 295 291 296 294
213 42 249 306 343 133 116 151 143 164 150 192 194 170 168 174 185 208 224 229 242 232 246 243 260 269 275 291 299 287 293 286 265 269 269 266 262 268 273 274 279 284 287 289 289 290 292 291 296
159 255 86 108 12 41 104 79 158 183 143 136 159 169 172 181 201 216 228 247 255 262 266 260 264 269 264 270 289 282 274 287 299 283 270 263 269 268 264 270 277 281 286 287 290 291 291 292 295
131 238 232 205 337 355 17 296 357 216 187 162 172 189 203 217 241 243 245 264 265 270 246 247 258 265 253 252 266 281 274 281 275 277 296 266 272 270 266 264 266 272 277 281 285 290 294 296 299
98 71 346 221 171 21 15 306 234 200 216 202 207 214 216 231 255 239 249 265 250 232 239 236 257 265 239 237 253 267 274 274 277 287 287 282 272 276 268 268 267 269 270 273 278 286 289 290 295
79 61 74 285 173 175 144 258 259 259 242 252 237 207 219 252 253 236 238 260 256 229 235 242 260 270 254 242 243 251 258 264 267 268 266 270 276 283 278 273 269 271 270 271 277 280 283 286 289
2 193 207 306 202 138 160 267 268 44 286 260 232 232 236 231 221 248 255 259 233 221 231 241 252 260 265 259 253 252 254 254 257 256 257 268 270 278 275 273 272 271 272 269 272 273 276 279 282
189 202 233 220 208 146 204 260 287 273 300 298 251 228 222 228 236 250 244 228 218 225 234 245 256 261 267 268 263 260 255 252 251 253 244 253 257 260 267 267 266 268 273 272 270 270 273 279 282
131 180 231 236 231 152 220 259 264 270 279 275 264 249 235 229 234 229 224 216 224 234 247 260 271 279 274 268 264 256 249 245 244 246 244 248 255 263 268 268 271 269 268 275 277 276 275 278 282
208 190 265 40 346 147 270 262 252 250 253 248 248 244 241 237 212 210 215 219 226 246 273 288 287 285 283 276 259 241 231 232 236 241 242 246 257 260 268 275 275 274 275 275 277 276 280 280 281
194 177 199 68 348 290 341 288 270 273 245 245 240 244 242 232 205 199 203 213 234 266 275 282 289 290 289 282 235 202 214 220 227 239 250 253 254 265 272 273 272 274 274 272 274 274 273 271 270
178 196 158 121 56 241 41 288 298 272 297 217 221 215 203 193 190 191 197 216 241 264 285 292 296 302 299 280 222 209 223 232 239 243 255 266 273 274 275 273 271 273 268 270 271 274 274 271 271
194 171 173 142 141 13 213 233 273 281 286 223 135 156 165 169 178 184 197 208 244 279 287 296 303 307 300 259 218 216 230 236 238 245 252 260 268 267 265 264 268 271 271 273 275 278 280 278 276
153 90 54 65 83 300 205 175 274 225 213 118 144 160 160 166 175 182 179 209 229 252 279 282 303 303 287 264 239 221 221 219 227 238 247 250 252 254 255 259 261 264 268 271 273 274 275 275 276
128 115 53 2 212 232 120 171 262 277 245 180 170 173 173 172 176 181 191 193 141 156 239 273 280 282 282 274 253 236 227 225 226 228 229 229 233 245 255 266 279 281 280 279 278 275 272 269 263
176 178 158 194 191 236 79 219 247 263 267 252 183 176 173 174 183 186 203 179 184 186 224 267 280 282 289 286 267 240 228 220 218 220 221 226 235 248 265 279 283 286 286 283 280 276 268 256 240
184 192 170 99 20 60 221 287 308 120 52 121 155 169 172 181 189 204 240 212 212 214 238 257 266 266 258 255 254 246 239 234 231 230 232 238 246 260 279 292 295 295 290 283 273 259 240 219 202
166 150 109 60 156 242 271 270 237 307 220 117 136 165 182 192 208 237 235 223 223 226 239 254 267 274 271 257 247 245 243 242 243 245 247 248 252 263 285 292 293 289 280 268 251 228 207 200 201
148 177 179 141 160 178 191 255 214 252 193 163 186 191 198 212 226 227 234 224 228 235 246 256 265 262 258 259 257 255 249 246 244 244 247 252 259 269 278 282 281 278 268 248 232 223 215 234 295
169 174 165 143 225 239 142 267 98 339 159 171 189 201 212 227 246 252 252 261 258 261 259 262 264 266 263 260 257 255 251 247 245 246 247 251 259 267 272 271 268 261 246 231 216 217 262 318 326